Flag for U.S.A. Weather past 2 weeks in Hollywood, California, U.S.A.

Now
96 °F

Sunny.


Feels Like: 94 °F
Forecast: 68 / 92 °F
Wind: 10 mph from South

Location: Burbank-Glendale-Pasadena Airport

Current Time: Aug 27, 2015 at 2:35:06 PM

Latest Report: Aug 27, 2015 at 1:53 PM


Visibility: 10 mi

Pressure: 29.90 "Hg

Humidity: 26%

Dew point: 56 °F

Location of HollywoodLocation

Historic Weather in Hollywood — Graph

°F

Hollywood temperature yesterday

Maximum temperature yesterday: 95 °F (at 2:53 PM)
Minimum temperature yesterday: 75 °F (at 6:53 AM)
Average temperature yesterday: 84 °F

Past Weeks' High & Low Weather Summary

 TemperatureHumidityPressure
High102 °F (Aug 15, 1:53 PM)88% (Aug 19, 4:56 AM)29.95 "Hg (Aug 19, 4:56 AM)
Low66 °F (Aug 20, 2:53 AM)7% (Aug 13, 5:53 PM)29.75 "Hg (Aug 16, 6:53 PM)
Average79 °F52%29.87 "Hg
* Reported Aug 12 12:53 PM — Aug 27 12:53 PM, Hollywood, Weather by CustomWeather, © 2015

Note: Actual official high and low records may vary slightly from our data, if they occured in-between our weather recording intervals... More about our weather records

Advertising

Hollywood weather history for previous 24 hours

 ConditionsComfort  
Time TempWeatherWind HumidityBarometerVisibility
12:53 PM
Thu, Aug 27
96 °FSunny.10 mph29%29.91 "Hg10 mi
11:53 AM93 °FSunny.7 mph31%29.93 "Hg10 mi
10:53 AM91 °FSunny.5 mph32%29.95 "Hg10 mi
9:53 AM86 °FSunny.No wind39%29.95 "Hg10 mi
8:53 AM81 °FSunny.No wind47%29.95 "Hg10 mi
7:53 AM77 °FSunny.No wind52%29.94 "Hg10 mi
6:53 AM75 °FClear.No wind48%29.94 "Hg10 mi
5:53 AM74 °FClear.No wind52%29.93 "Hg10 mi
4:53 AM74 °FClear.No wind53%29.93 "Hg10 mi
3:53 AM74 °FClear.6 mph53%29.92 "Hg10 mi
2:53 AM74 °FClear.3 mph60%29.92 "Hg10 mi
1:53 AM75 °FClear.No wind62%29.93 "Hg10 mi
10:53 PM
Wed, Aug 26
79 °FClear.7 mph54%29.92 "Hg10 mi
9:53 PM81 °FClear.3 mph51%29.91 "Hg10 mi
6:53 PM87 °FSunny.8 mph33%29.87 "Hg10 mi
5:53 PM92 °FSunny.8 mph28%29.86 "Hg10 mi
4:53 PM92 °FSunny.12 mph29%29.87 "Hg10 mi
3:53 PM95 °FSunny.12 mph25%29.88 "Hg10 mi
2:53 PM95 °FSunny.7 mph28%29.90 "Hg10 mi
Weather by CustomWeather, © 2015

See weather overviewHow to use our weather pages